Location: Unspecified
(0.0000°N, 0.0000°E)
Time: 01:48:28
(UTC+00:00)

Asterix - Visible Passes

Search period start: 27 February 2021 00:00
Search period end: 09 March 2021 00:00
Orbit: 522 x 1644 km, 34.3° (Epoch: 26 February)

Date Brightness Start Highest point End Pass type
(mag) Time Alt. Az. Time Alt. Az. Time Alt. Az.
27 Feb ? 03:44:54 74° SE 03:44:54 74° SE 03:54:36 10° ENE visible
27 Feb ? 05:31:50 11° W 05:39:32 36° NNW 05:48:38 10° NNE visible
28 Feb ? 02:54:56 28° E 02:54:56 28° E 02:59:19 10° ENE visible
28 Feb ? 04:41:51 36° WNW 04:44:46 48° NNW 04:54:15 10° NE visible
01 Mar ? 03:51:44 56° N 03:51:44 56° N 03:59:38 10° NE visible
01 Mar ? 05:38:58 10° WNW 05:45:20 21° NNW 05:52:24 10° NNE visible
02 Mar ? 03:01:30 24° NE 03:01:30 24° NE 03:04:47 10° NE visible
02 Mar ? 04:48:24 25° NW 04:50:27 28° NNW 04:58:21 10° NNE visible
03 Mar ? 03:58:03 32° N 03:58:03 32° N 04:04:03 10° NNE visible
03 Mar ? 05:48:17 10° NW 05:51:32 12° NNW 05:54:56 10° N visible
04 Mar ? 03:07:35 17° NE 03:07:35 17° NE 03:09:34 10° NE visible
04 Mar ? 04:54:28 14° NW 04:56:29 16° NNW 05:01:36 10° N visible
05 Mar ? 04:03:53 18° N 04:03:53 18° N 04:07:45 10° NNE visible
06 Mar ? 03:13:13 11° NNE 03:13:13 11° NNE 03:13:39 10° NNE visible
